| time (UTC) | temp F | wind direction | speed MPH | gust MPH | rain 1hr in | rain 24hr in | rain mn in | humidity % | barometer mb |
| 20260506015241 | 68 | 178 | 0.0 | 5.0 | 0.00 | 0.00 | 0.00 | 75 | 1005.7 |
| 20260506014738 | 68 | 193 | 2.0 | 5.0 | 0.00 | 0.00 | 0.00 | 75 | 1005.5 |
| 20260506014234 | 68 | 102 | 0.0 | 2.0 | 0.00 | 0.00 | 0.00 | 74 | 1005.7 |
| 20260506013732 | 68 | 167 | 1.0 | 5.0 | 0.00 | 0.00 | 0.00 | 74 | 1005.5 |
| 20260506013229 | 68 | 162 | 1.0 | 3.0 | 0.00 | 0.00 | 0.00 | 74 | 1005.5 |
| 20260506012725 | 69 | 241 | 1.0 | 3.0 | 0.00 | 0.00 | 0.00 | 74 | 1005.3 |
| 20260506012222 | 69 | 165 | 0.0 | 1.0 | 0.00 | 0.00 | 0.00 | 73 | 1005.2 |
| 20260506011719 | 69 | 161 | 0.0 | 2.0 | 0.00 | 0.00 | 0.00 | 73 | 1004.7 |
| 20260506011215 | 69 | 188 | 1.0 | 3.0 | 0.00 | 0.00 | 0.00 | 72 | 1004.9 |
| 20260506010714 | 70 | 183 | 2.0 | 2.0 | 0.00 | 0.00 | 0.00 | 72 | 1004.8 |
| 20260506010211 | 70 | 337 | 2.0 | 5.0 | 0.00 | 0.00 | 0.00 | 72 | 1004.7 |
| 20260506005708 | 71 | 8 | 2.0 | 3.0 | 0.00 | 0.00 | 0.00 | 72 | 1004.5 |
| 20260506005205 | 71 | 124 | 1.0 | 2.0 | 0.00 | 0.00 | 0.00 | 71 | 1004.4 |
| 20260506004701 | 71 | 354 | 2.0 | 2.0 | 0.00 | 0.00 | 0.00 | 71 | 1004.5 |
| 20260506004159 | 71 | 167 | 3.0 | 3.0 | 0.00 | 0.00 | 0.00 | 71 | 1004.3 |
| 20260506003654 | 72 | 290 | 2.0 | 3.0 | 0.00 | 0.00 | 0.00 | 71 | 1004.3 |
| 20260506003151 | 72 | 55 | 2.0 | 3.0 | 0.00 | 0.00 | 0.00 | 71 | 1003.6 |
| 20260506002647 | 73 | 148 | 2.0 | 6.0 | 0.00 | 0.00 | 0.00 | 70 | 1004.1 |
| 20260506002143 | 73 | 142 | 1.0 | 2.0 | 0.00 | 0.00 | 0.00 | 70 | 1003.9 |
| 20260506001638 | 74 | 156 | 1.0 | 3.0 | 0.00 | 0.00 | 0.00 | 70 | 1003.9 |
| 20260506001137 | 74 | 168 | 1.0 | 3.0 | 0.00 | 0.00 | 0.00 | 68 | 1003.7 |
| 20260506000633 | 75 | 179 | 1.0 | 5.0 | 0.00 | 0.00 | 0.00 | 67 | 1003.8 |
| 20260506000131 | 75 | 276 | 1.0 | 2.0 | 0.00 | 0.00 | 0.00 | 67 | 1003.7 |
| 20260505235629 | 75 | 276 | 2.0 | 5.0 | 0.00 | 0.00 | 0.00 | 67 | 1003.7 |
| 20260505235126 | 76 | 189 | 2.0 | 3.0 | 0.00 | 0.00 | 0.00 | 66 | 1003.6 |
| 20260505234622 | 77 | 206 | 2.0 | 6.0 | 0.00 | 0.00 | 0.00 | 65 | 1003.6 |
| 20260505234119 | 77 | 145 | 2.0 | 6.0 | 0.00 | 0.00 | 0.00 | 66 | 1003.7 |
| 20260505233617 | 78 | 203 | 2.0 | 3.0 | 0.00 | 0.00 | 0.00 | 64 | 1003.6 |
| 20260505233114 | 78 | 183 | 2.0 | 3.0 | 0.00 | 0.00 | 0.00 | 63 | 1003.5 |
| 20260505232612 | 78 | 247 | 0.0 | 6.0 | 0.00 | 0.00 | 0.00 | 63 | 1003.4 |
| 20260505232109 | 79 | 161 | 0.0 | 2.0 | 0.00 | 0.00 | 0.00 | 63 | 1003.2 |
| 20260505231606 | 79 | 193 | 1.0 | 6.0 | 0.00 | 0.00 | 0.00 | 62 | 1003.5 |
| 20260505231104 | 80 | 175 | 3.0 | 8.0 | 0.00 | 0.00 | 0.00 | 61 | 1003.3 |
| 20260505230602 | 81 | 291 | 1.0 | 3.0 | 0.00 | 0.00 | 0.00 | 61 | 1003.3 |
| 20260505230058 | 81 | 202 | 0.0 | 1.0 | 0.00 | 0.00 | 0.00 | 60 | 1003.1 |
| 20260505225555 | 82 | 177 | 2.0 | 3.0 | 0.00 | 0.00 | 0.00 | 59 | 1003.1 |
| 20260505225050 | 82 | 180 | 0.0 | 6.0 | 0.00 | 0.00 | 0.00 | 58 | 1003.2 |
| 20260505224548 | 83 | 236 | 3.0 | 6.0 | 0.00 | 0.00 | 0.00 | 57 | 1003.0 |
| 20260505224045 | 83 | 204 | 0.0 | 2.0 | 0.00 | 0.00 | 0.00 | 57 | 1002.7 |
| 20260505223542 | 84 | 192 | 2.0 | 6.0 | 0.00 | 0.00 | 0.00 | 57 | 1002.7 |
| 20260505223038 | 84 | 238 | 1.0 | 8.0 | 0.00 | 0.00 | 0.00 | 57 | 1002.7 |
| 20260505222534 | 85 | 149 | 4.0 | 7.0 | 0.00 | 0.00 | 0.00 | 56 | 1002.7 |
| 20260505222031 | 86 | 304 | 4.0 | 6.0 | 0.00 | 0.00 | 0.00 | 54 | 1002.4 |
| 20260505221528 | 86 | 184 | 4.0 | 7.0 | 0.00 | 0.00 | 0.00 | 54 | 1002.4 |
| 20260505221024 | 87 | 198 | 2.0 | 5.0 | 0.00 | 0.00 | 0.00 | 54 | 1002.1 |
| 20260505220522 | 87 | 196 | 1.0 | 3.0 | 0.00 | 0.00 | 0.00 | 54 | 1002.3 |
| 20260505220020 | 88 | 256 | 1.0 | 5.0 | 0.00 | 0.00 | 0.00 | 50 | 1002.4 |
| 20260505215518 | 88 | 189 | 1.0 | 2.0 | 0.00 | 0.00 | 0.00 | 48 | 1002.3 |
| 20260505215015 | 88 | 158 | 0.0 | 5.0 | 0.00 | 0.00 | 0.00 | 48 | 1002.0 |
| 20260505214513 | 88 | 224 | 2.0 | 6.0 | 0.00 | 0.00 | 0.00 | 46 | 1002.4 |
| 20260505214009 | 89 | 199 | 1.0 | 5.0 | 0.00 | 0.00 | 0.00 | 45 | 1002.6 |
| 20260505213507 | 91 | 202 | 1.0 | 5.0 | 0.00 | 0.00 | 0.00 | 44 | 1002.3 |
| 20260505213004 | 93 | 221 | 4.0 | 7.0 | 0.00 | 0.00 | 0.00 | 42 | 1002.1 |
| 20260505212500 | 91 | 194 | 1.0 | 3.0 | 0.00 | 0.00 | 0.00 | 45 | 1002.3 |
| 20260505211957 | 91 | 284 | 2.0 | 6.0 | 0.00 | 0.00 | 0.00 | 44 | 1002.0 |
| 20260505211454 | 92 | 189 | 0.0 | 5.0 | 0.00 | 0.00 | 0.00 | 44 | 1002.4 |
| 20260505210950 | 93 | 310 | 3.0 | 6.0 | 0.00 | 0.00 | 0.00 | 44 | 1002.3 |
| 20260505210448 | 95 | 198 | 1.0 | 7.0 | 0.00 | 0.00 | 0.00 | 44 | 1002.4 |
| 20260505205944 | 96 | 212 | 3.0 | 5.0 | 0.00 | 0.00 | 0.00 | 47 | 1002.3 |
| 20260505205443 | 96 | 258 | 3.0 | 5.0 | 0.00 | 0.00 | 0.00 | 48 | 1002.1 |
| 20260505204939 | 97 | 276 | 1.0 | 5.0 | 0.00 | 0.00 | 0.00 | 46 | 1002.5 |
| 20260505204437 | 96 | 229 | 3.0 | 6.0 | 0.00 | 0.00 | 0.00 | 46 | 1002.5 |
| 20260505203934 | 95 | 273 | 1.0 | 5.0 | 0.00 | 0.00 | 0.00 | 47 | 1002.6 |
| 20260505203431 | 95 | 235 | 3.0 | 7.0 | 0.00 | 0.00 | 0.00 | 47 | 1002.5 |
| 20260505202927 | 95 | 280 | 2.0 | 7.0 | 0.00 | 0.00 | 0.00 | 48 | 1002.8 |
| 20260505202424 | 95 | 204 | 2.0 | 5.0 | 0.00 | 0.00 | 0.00 | 49 | 1002.5 |
| 20260505201920 | 95 | 335 | 2.0 | 5.0 | 0.00 | 0.00 | 0.00 | 47 | 1002.5 |
| 20260505201417 | 94 | 222 | 2.0 | 5.0 | 0.00 | 0.00 | 0.00 | 48 | 1002.6 |
| 20260505200915 | 95 | 259 | 2.0 | 5.0 | 0.00 | 0.00 | 0.00 | 50 | 1002.9 |
| 20260505200412 | 95 | 311 | 3.0 | 6.0 | 0.00 | 0.00 | 0.00 | 49 | 1003.0 |
| 20260505195908 | 94 | 282 | 3.0 | 7.0 | 0.00 | 0.00 | 0.00 | 49 | 1002.7 |
| 20260505195405 | 95 | 255 | 2.0 | 8.0 | 0.00 | 0.00 | 0.00 | 52 | 1002.8 |
| 20260505194902 | 94 | 272 | 4.0 | 6.0 | 0.00 | 0.00 | 0.00 | 51 | 1002.9 |
| 20260505194400 | 93 | 257 | 5.0 | 6.0 | 0.00 | 0.00 | 0.00 | 53 | 1002.8 |
| 20260505193855 | 92 | 256 | 3.0 | 5.0 | 0.00 | 0.00 | 0.00 | 54 | 1002.9 |
| 20260505193353 | 93 | 241 | 3.0 | 7.0 | 0.00 | 0.00 | 0.00 | 53 | 1003.1 |
| 20260505192850 | 93 | 263 | 3.0 | 7.0 | 0.00 | 0.00 | 0.00 | 53 | 1002.8 |
| 20260505192348 | 92 | 206 | 6.0 | 9.0 | 0.00 | 0.00 | 0.00 | 53 | 1003.0 |
| 20260505191845 | 92 | 228 | 2.0 | 5.0 | 0.00 | 0.00 | 0.00 | 57 | 1002.9 |
| 20260505191344 | 91 | 283 | 2.0 | 6.0 | 0.00 | 0.00 | 0.00 | 55 | 1002.6 |
| 20260505190840 | 92 | 214 | 3.0 | 5.0 | 0.00 | 0.00 | 0.00 | 57 | 1002.7 |
| 20260505190336 | 92 | 199 | 3.0 | 7.0 | 0.00 | 0.00 | 0.00 | 56 | 1003.0 |
| 20260505185832 | 91 | 244 | 2.0 | 3.0 | 0.00 | 0.00 | 0.00 | 58 | 1002.7 |
| 20260505185328 | 90 | 213 | 2.0 | 2.0 | 0.00 | 0.00 | 0.00 | 62 | 1002.8 |
| 20260505184825 | 91 | 306 | 3.0 | 7.0 | 0.00 | 0.00 | 0.00 | 57 | 1002.7 |
| 20260505184322 | 90 | 236 | 3.0 | 5.0 | 0.00 | 0.00 | 0.00 | 58 | 1002.9 |
| 20260505183819 | 88 | 278 | 3.0 | 5.0 | 0.00 | 0.00 | 0.00 | 61 | 1002.9 |
| 20260505183316 | 88 | 268 | 3.0 | 5.0 | 0.00 | 0.00 | 0.00 | 61 | 1002.8 |
| 20260505182812 | 88 | 241 | 1.0 | 6.0 | 0.00 | 0.00 | 0.00 | 61 | 1003.0 |
| 20260505182309 | 87 | 228 | 1.0 | 3.0 | 0.00 | 0.00 | 0.00 | 64 | 1003.1 |
| 20260505181806 | 87 | 158 | 3.0 | 7.0 | 0.00 | 0.00 | 0.00 | 64 | 1003.0 |
| 20260505181303 | 87 | 263 | 1.0 | 8.0 | 0.00 | 0.00 | 0.00 | 64 | 1002.9 |
| 20260505180800 | 87 | 84 | 3.0 | 5.0 | 0.00 | 0.00 | 0.00 | 63 | 1003.0 |
| 20260505180256 | 87 | 326 | 2.0 | 7.0 | 0.00 | 0.00 | 0.00 | 62 | 1003.1 |
| 20260505175753 | 87 | 260 | 2.0 | 3.0 | 0.00 | 0.00 | 0.00 | 62 | 1003.2 |
| 20260505175249 | 88 | 277 | 3.0 | 5.0 | 0.00 | 0.00 | 0.00 | 61 | 1003.2 |
| 20260505174746 | 88 | 286 | 3.0 | 6.0 | 0.00 | 0.00 | 0.00 | 63 | 1003.2 |
| 20260505174243 | 87 | 231 | 0.0 | 3.0 | 0.00 | 0.00 | 0.00 | 64 | 1002.9 |
| 20260505173739 | 87 | 240 | 2.0 | 6.0 | 0.00 | 0.00 | 0.00 | 64 | 1003.0 |
| 20260505173236 | 86 | 312 | 3.0 | 5.0 | 0.00 | 0.00 | 0.00 | 63 | 1002.7 |
| 20260505172733 | 86 | 249 | 3.0 | 5.0 | 0.00 | 0.00 | 0.00 | 64 | 1002.8 |
| 20260505172230 | 86 | 270 | 3.0 | 5.0 | 0.00 | 0.00 | 0.00 | 64 | 1002.7 |
| 20260505171729 | 86 | 243 | 4.0 | 6.0 | 0.00 | 0.00 | 0.00 | 63 | 1002.9 |
| 20260505171227 | 86 | 243 | 1.0 | 6.0 | 0.00 | 0.00 | 0.00 | 65 | 1003.0 |
| 20260505170723 | 86 | 22 | 5.0 | 8.0 | 0.00 | 0.00 | 0.00 | 64 | 1003.1 |
| 20260505170220 | 85 | 235 | 3.0 | 6.0 | 0.00 | 0.00 | 0.00 | 65 | 1003.2 |
| 20260505165716 | 85 | 200 | 3.0 | 6.0 | 0.00 | 0.00 | 0.00 | 64 | 1003.3 |
| 20260505165212 | 85 | 235 | 3.0 | 7.0 | 0.00 | 0.00 | 0.00 | 65 | 1003.2 |
| 20260505164707 | 84 | 294 | 1.0 | 5.0 | 0.00 | 0.00 | 0.00 | 68 | 1002.9 |
| 20260505164205 | 83 | 227 | 3.0 | 8.0 | 0.00 | 0.00 | 0.00 | 70 | 1003.1 |
| 20260505163703 | 83 | 211 | 1.0 | 5.0 | 0.00 | 0.00 | 0.00 | 69 | 1003.0 |
| 20260505163201 | 83 | 238 | 3.0 | 5.0 | 0.00 | 0.00 | 0.00 | 68 | 1003.0 |
| 20260505162658 | 83 | 216 | 1.0 | 7.0 | 0.00 | 0.00 | 0.00 | 69 | 1002.9 |
| 20260505162155 | 82 | 201 | 2.0 | 5.0 | 0.00 | 0.00 | 0.00 | 70 | 1003.0 |
| 20260505161652 | 82 | 38 | 2.0 | 8.0 | 0.00 | 0.00 | 0.00 | 69 | 1003.2 |
| 20260505161149 | 83 | 308 | 3.0 | 5.0 | 0.00 | 0.00 | 0.00 | 70 | 1002.9 |
| 20260505160647 | 82 | 277 | 1.0 | 5.0 | 0.00 | 0.00 | 0.00 | 71 | 1002.7 |
| 20260505160144 | 82 | 269 | 4.0 | 6.0 | 0.00 | 0.00 | 0.00 | 71 | 1003.0 |
| 20260505153124 | 79 | 221 | 2.0 | 3.0 | 0.00 | 0.00 | 0.00 | 75 | 1002.9 |
| 20260505152620 | 78 | 270 | 2.0 | 3.0 | 0.00 | 0.00 | 0.00 | 76 | 1002.6 |
| 20260505152116 | 78 | 248 | 2.0 | 7.0 | 0.00 | 0.00 | 0.00 | 76 | 1002.7 |
| 20260505151612 | 78 | 160 | 3.0 | 3.0 | 0.00 | 0.00 | 0.00 | 76 | 1002.8 |
| 20260505151109 | 78 | 245 | 3.0 | 8.0 | 0.00 | 0.00 | 0.00 | 76 | 1002.6 |
| 20260505150605 | 78 | 255 | 3.0 | 7.0 | 0.00 | 0.00 | 0.00 | 76 | 1002.7 |
| 20260505140531 | 75 | 263 | 3.0 | 5.0 | 0.00 | 0.00 | 0.00 | 82 | 1002.6 |
| 20260505124944 | 71 | 290 | 2.0 | 3.0 | 0.00 | 0.00 | 0.00 | 88 | 1002.5 |
| 20260505124441 | 71 | 336 | 3.0 | 6.0 | 0.00 | 0.00 | 0.00 | 89 | 1002.5 |
| 20260505123937 | 71 | 211 | 0.0 | 5.0 | 0.00 | 0.00 | 0.00 | 89 | 1002.4 |
| 20260505123434 | 71 | 215 | 3.0 | 3.0 | 0.00 | 0.00 | 0.00 | 90 | 1002.1 |
| 20260505122929 | 70 | 209 | 2.0 | 5.0 | 0.00 | 0.00 | 0.00 | 90 | 1001.9 |
| 20260505122427 | 70 | 268 | 2.0 | 5.0 | 0.00 | 0.00 | 0.00 | 90 | 1002.0 |
| 20260505121924 | 70 | 292 | 3.0 | 5.0 | 0.00 | 0.00 | 0.00 | 91 | 1001.9 |
| 20260505121421 | 70 | 275 | 1.0 | 5.0 | 0.00 | 0.00 | 0.00 | 91 | 1001.8 |
| 20260505120916 | 70 | 285 | 2.0 | 7.0 | 0.00 | 0.00 | 0.00 | 91 | 1001.8 |
| 20260505120413 | 70 | 262 | 1.0 | 3.0 | 0.00 | 0.00 | 0.00 | 91 | 1001.7 |
| 20260505115912 | 70 | 240 | 0.0 | 3.0 | 0.00 | 0.00 | 0.00 | 91 | 1001.5 |
| 20260505115409 | 70 | 232 | 1.0 | 3.0 | 0.00 | 0.00 | 0.00 | 91 | 1001.7 |
| 20260505114907 | 70 | 298 | 3.0 | 6.0 | 0.00 | 0.00 | 0.00 | 91 | 1001.6 |
| 20260505114403 | 70 | 280 | 2.0 | 6.0 | 0.00 | 0.00 | 0.00 | 91 | 1001.4 |
| 20260505113859 | 69 | 167 | 3.0 | 5.0 | 0.00 | 0.00 | 0.00 | 92 | 1001.7 |
| 20260505113356 | 69 | 41 | 3.0 | 3.0 | 0.00 | 0.00 | 0.00 | 92 | 1001.5 |
| 20260505112852 | 70 | 220 | 1.0 | 5.0 | 0.00 | 0.00 | 0.00 | 91 | 1001.3 |
| 20260505112350 | 70 | 300 | 2.0 | 6.0 | 0.00 | 0.00 | 0.00 | 91 | 1001.3 |
| 20260505111845 | 70 | 245 | 1.0 | 3.0 | 0.00 | 0.00 | 0.00 | 91 | 1001.4 |
| 20260505111341 | 69 | 283 | 2.0 | 7.0 | 0.00 | 0.00 | 0.00 | 91 | 1001.6 |
| 20260505110837 | 69 | 302 | 2.0 | 5.0 | 0.00 | 0.00 | 0.00 | 91 | 1001.3 |
| 20260505110334 | 70 | 261 | 2.0 | 5.0 | 0.00 | 0.00 | 0.00 | 91 | 1001.3 |
| 20260505101809 | 70 | 309 | 5.0 | 8.0 | 0.00 | 0.00 | 0.00 | 90 | 1001.2 |
| 20260505101304 | 70 | 293 | 3.0 | 5.0 | 0.00 | 0.00 | 0.00 | 90 | 1001.3 |
| 20260505100801 | 70 | 181 | 2.0 | 7.0 | 0.00 | 0.00 | 0.00 | 90 | 1001.4 |
| 20260505100257 | 70 | 57 | 3.0 | 6.0 | 0.00 | 0.00 | 0.00 | 90 | 1001.3 |
| 20260505095753 | 70 | 2 | 2.0 | 6.0 | 0.00 | 0.00 | 0.00 | 89 | 1001.5 |
| 20260505095246 | 70 | 252 | 5.0 | 7.0 | 0.00 | 0.00 | 0.00 | 90 | 1001.4 |
| 20260505094740 | 70 | 46 | 2.0 | 7.0 | 0.00 | 0.00 | 0.00 | 89 | 1001.5 |
| 20260505094237 | 70 | 210 | 3.0 | 8.0 | 0.00 | 0.00 | 0.00 | 89 | 1001.3 |
| 20260505093733 | 71 | 176 | 3.0 | 10.0 | 0.00 | 0.00 | 0.00 | 88 | 1001.2 |
| 20260505093231 | 71 | 215 | 4.0 | 6.0 | 0.00 | 0.00 | 0.00 | 88 | 1001.3 |
| 20260505092727 | 71 | 271 | 3.0 | 16.0 | 0.00 | 0.00 | 0.00 | 88 | 1001.7 |
| 20260505092226 | 71 | 271 | 5.0 | 7.0 | 0.00 | 0.00 | 0.00 | 88 | 1001.3 |
| 20260505091723 | 71 | 270 | 3.0 | 7.0 | 0.00 | 0.00 | 0.00 | 88 | 1001.6 |
| 20260505091221 | 71 | 280 | 2.0 | 7.0 | 0.00 | 0.00 | 0.00 | 87 | 1001.6 |
| 20260505090718 | 71 | 325 | 5.0 | 6.0 | 0.00 | 0.00 | 0.00 | 87 | 1001.9 |
| 20260505090216 | 71 | 240 | 3.0 | 7.0 | 0.00 | 0.00 | 0.00 | 86 | 1001.8 |
| 20260505085713 | 72 | 313 | 5.0 | 9.0 | 0.00 | 0.00 | 0.00 | 86 | 1001.6 |
| 20260505085212 | 72 | 230 | 3.0 | 8.0 | 0.00 | 0.00 | 0.00 | 85 | 1001.8 |
| 20260505084709 | 72 | 278 | 3.0 | 9.0 | 0.00 | 0.00 | 0.00 | 85 | 1001.8 |
| 20260505084208 | 72 | 281 | 2.0 | 8.0 | 0.00 | 0.00 | 0.00 | 85 | 1001.9 |
| 20260505083704 | 72 | 325 | 3.0 | 8.0 | 0.00 | 0.00 | 0.00 | 84 | 1002.0 |
| 20260505083201 | 72 | 293 | 3.0 | 6.0 | 0.00 | 0.00 | 0.00 | 84 | 1002.1 |
| 20260505082657 | 72 | 67 | 4.0 | 7.0 | 0.00 | 0.00 | 0.00 | 84 | 1002.0 |
| 20260505082154 | 72 | 212 | 2.0 | 14.0 | 0.00 | 0.00 | 0.00 | 83 | 1002.0 |
| 20260505081649 | 72 | 318 | 4.0 | 8.0 | 0.00 | 0.00 | 0.00 | 83 | 1001.8 |
| 20260505081147 | 72 | 242 | 3.0 | 7.0 | 0.00 | 0.00 | 0.00 | 82 | 1001.7 |
| 20260505080644 | 73 | 346 | 3.0 | 3.0 | 0.00 | 0.00 | 0.00 | 82 | 1001.8 |
| 20260505080140 | 73 | 310 | 2.0 | 8.0 | 0.00 | 0.00 | 0.00 | 81 | 1001.9 |
| 20260505075636 | 73 | 270 | 2.0 | 6.0 | 0.00 | 0.00 | 0.00 | 81 | 1001.8 |
| 20260505075133 | 73 | 351 | 4.0 | 10.0 | 0.00 | 0.00 | 0.00 | 80 | 1001.7 |
| 20260505074630 | 73 | 240 | 5.0 | 11.0 | 0.00 | 0.00 | 0.00 | 80 | 1001.9 |
| 20260505074127 | 73 | 279 | 3.0 | 9.0 | 0.00 | 0.00 | 0.00 | 79 | 1002.0 |
| 20260505073625 | 73 | 264 | 3.0 | 6.0 | 0.00 | 0.00 | 0.00 | 79 | 1002.0 |
| 20260505073123 | 73 | 224 | 3.0 | 6.0 | 0.00 | 0.00 | 0.00 | 79 | 1002.3 |
| 20260505072618 | 73 | 357 | 6.0 | 11.0 | 0.00 | 0.00 | 0.00 | 78 | 1002.6 |
| 20260505072115 | 73 | 306 | 2.0 | 10.0 | 0.00 | 0.00 | 0.00 | 78 | 1002.6 |
| 20260505071610 | 73 | 290 | 3.0 | 7.0 | 0.00 | 0.00 | 0.00 | 78 | 1002.5 |
| 20260505071109 | 73 | 260 | 5.0 | 7.0 | 0.00 | 0.00 | 0.00 | 77 | 1002.5 |
| 20260505070606 | 74 | 223 | 1.0 | 5.0 | 0.00 | 0.00 | 0.00 | 77 | 1002.6 |
| 20260505065558 | 74 | 58 | 3.0 | 6.0 | 0.00 | 0.00 | 0.00 | 76 | 1002.7 |
| 20260505065055 | 74 | 301 | 2.0 | 8.0 | 0.00 | 0.00 | 0.00 | 76 | 1003.0 |
| 20260505064551 | 74 | 295 | 4.0 | 8.0 | 0.00 | 0.00 | 0.00 | 76 | 1003.2 |
| 20260505064050 | 74 | 285 | 3.0 | 9.0 | 0.00 | 0.00 | 0.00 | 75 | 1003.2 |
| 20260505063547 | 74 | 287 | 4.0 | 8.0 | 0.00 | 0.00 | 0.00 | 75 | 1003.1 |
| 20260505063043 | 74 | 71 | 5.0 | 7.0 | 0.00 | 0.00 | 0.00 | 75 | 1003.2 |
| 20260505062539 | 74 | 201 | 5.0 | 8.0 | 0.00 | 0.00 | 0.00 | 75 | 1003.5 |
| 20260505062037 | 75 | 221 | 3.0 | 7.0 | 0.00 | 0.00 | 0.00 | 74 | 1003.2 |
| 20260505061534 | 75 | 262 | 4.0 | 6.0 | 0.00 | 0.00 | 0.00 | 74 | 1003.3 |
| 20260505061032 | 75 | 324 | 2.0 | 8.0 | 0.00 | 0.00 | 0.00 | 74 | 1003.2 |
| 20260505060529 | 75 | 226 | 4.0 | 7.0 | 0.00 | 0.00 | 0.00 | 74 | 1003.3 |
| 20260505060026 | 75 | 316 | 5.0 | 7.0 | 0.00 | 0.00 | 0.00 | 73 | 1003.3 |
| 20260505055521 | 75 | 308 | 1.0 | 7.0 | 0.00 | 0.00 | 0.00 | 73 | 1003.1 |
| 20260505055018 | 75 | 310 | 3.0 | 8.0 | 0.00 | 0.00 | 0.00 | 73 | 1003.3 |
| 20260505054515 | 75 | 246 | 3.0 | 6.0 | 0.00 | 0.00 | 0.00 | 73 | 1003.3 |
| 20260505054013 | 76 | 211 | 1.0 | 5.0 | 0.00 | 0.00 | 0.00 | 72 | 1003.2 |
| 20260505053510 | 76 | 236 | 4.0 | 6.0 | 0.00 | 0.00 | 0.00 | 72 | 1003.3 |
| 20260505053007 | 76 | 237 | 2.0 | 5.0 | 0.00 | 0.00 | 0.00 | 72 | 1003.2 |
| 20260505052504 | 76 | 232 | 3.0 | 8.0 | 0.00 | 0.00 | 0.00 | 72 | 1003.1 |
| 20260505052001 | 76 | 228 | 1.0 | 2.0 | 0.00 | 0.00 | 0.00 | 72 | 1003.3 |
| 20260505051458 | 76 | 277 | 1.0 | 3.0 | 0.00 | 0.00 | 0.00 | 72 | 1003.2 |
| 20260505050956 | 76 | 282 | 3.0 | 5.0 | 0.00 | 0.00 | 0.00 | 72 | 1003.2 |
| 20260505050454 | 76 | 247 | 1.0 | 5.0 | 0.00 | 0.00 | 0.00 | 72 | 1003.1 |
| 20260505041422 | 75 | 189 | 1.0 | 7.0 | 0.00 | 0.00 | 0.00 | 73 | 1003.8 |
| 20260505040919 | 75 | 83 | 1.0 | 6.0 | 0.00 | 0.00 | 0.00 | 73 | 1003.9 |
| 20260505040416 | 75 | 264 | 3.0 | 7.0 | 0.00 | 0.00 | 0.00 | 73 | 1003.6 |
| 20260505035913 | 75 | 230 | 1.0 | 6.0 | 0.00 | 0.00 | 0.00 | 73 | 1003.6 |
| 20260505035409 | 75 | 7 | 3.0 | 10.0 | 0.00 | 0.00 | 0.00 | 73 | 1003.7 |
| 20260505034907 | 75 | 178 | 4.0 | 6.0 | 0.00 | 0.00 | 0.00 | 73 | 1003.8 |
| 20260505034403 | 75 | 41 | 7.0 | 9.0 | 0.00 | 0.00 | 0.00 | 73 | 1003.6 |
| 20260505033900 | 75 | 274 | 2.0 | 5.0 | 0.00 | 0.00 | 0.00 | 73 | 1003.8 |
| 20260505033357 | 75 | 162 | 3.0 | 3.0 | 0.00 | 0.00 | 0.00 | 73 | 1003.5 |
| 20260505032855 | 75 | 354 | 3.0 | 7.0 | 0.00 | 0.00 | 0.00 | 73 | 1003.6 |
| 20260505032352 | 75 | 308 | 3.0 | 5.0 | 0.00 | 0.00 | 0.00 | 73 | 1003.8 |
| 20260505031848 | 75 | 52 | 4.0 | 6.0 | 0.00 | 0.00 | 0.00 | 72 | 1003.6 |
| 20260505031345 | 75 | 279 | 2.0 | 7.0 | 0.00 | 0.00 | 0.00 | 72 | 1003.7 |
| 20260505030843 | 75 | 31 | 3.0 | 5.0 | 0.00 | 0.00 | 0.00 | 72 | 1003.7 |
| 20260505030338 | 76 | 219 | 1.0 | 8.0 | 0.00 | 0.00 | 0.00 | 72 | 1003.6 |
| 20260505025833 | 76 | 244 | 2.0 | 3.0 | 0.00 | 0.00 | 0.00 | 72 | 1003.8 |
| 20260505025331 | 76 | 125 | 3.0 | 5.0 | 0.00 | 0.00 | 0.00 | 72 | 1004.0 |
| 20260505024830 | 76 | 339 | 3.0 | 6.0 | 0.00 | 0.00 | 0.00 | 72 | 1003.7 |
| 20260505024327 | 76 | 278 | 2.0 | 3.0 | 0.00 | 0.00 | 0.00 | 72 | 1004.0 |
| 20260505023824 | 76 | 236 | 2.0 | 6.0 | 0.00 | 0.00 | 0.00 | 72 | 1003.8 |
| 20260505023321 | 75 | 26 | 5.0 | 7.0 | 0.00 | 0.00 | 0.00 | 72 | 1003.7 |
| 20260505022818 | 76 | 8 | 2.0 | 2.0 | 0.00 | 0.00 | 0.00 | 72 | 1003.9 |
| 20260505022315 | 76 | 5 | 1.0 | 6.0 | 0.00 | 0.00 | 0.00 | 72 | 1003.7 |
| 20260505021812 | 76 | 337 | 2.0 | 3.0 | 0.00 | 0.00 | 0.00 | 71 | 1003.9 |
| 20260505021309 | 76 | 289 | 2.0 | 3.0 | 0.00 | 0.00 | 0.00 | 72 | 1003.5 |
| 20260505020804 | 76 | 166 | 1.0 | 2.0 | 0.00 | 0.00 | 0.00 | 72 | 1003.7 |
| 20260505020300 | 76 | 339 | 4.0 | 7.0 | 0.00 | 0.00 | 0.00 | 72 | 1003.7 |
| 20260505015758 | 76 | 309 | 3.0 | 3.0 | 0.00 | 0.00 | 0.00 | 71 | 1003.6 |